Weather History for Gage, OK

Change the Weather History Date:

Tuesday, September 25, 2012

  Actual Average Record
Temperature  
Mean Temperature 80 °F -  
Max Temperature 91 °F 81 °F 95 °F (1981)
Min Temperature 69 °F 51 °F 32 °F (1975)
Cooling Degree Days 15    
Growing Degree Days 30 (Base 50)    
Moisture  
Dew Point 52 °F    
Average Humidity 40    
Maximum Humidity 60    
Minimum Humidity 26    
Precipitation  
Precipitation 0.00 in - - ()
Sea Level Pressure  
Sea Level Pressure 29.74 in    
Wind  
Wind Speed 16 mph (South)    
Max Wind Speed 23 mph    
Max Gust Speed 30 mph    
Visibility 10 miles    
Events Rain , Thunderstorm    
Averages and records for this station are not official NWS values.
T = Trace of Precipitation, MM = Missing Value Source: NWS Daily Summary

Daily Weather History Graph

Daily Weather History Graph

Search for Another Location

Airport:

Trip Planner

Search our weather history database for the weather conditions in past years. The results will help you decide how hot, cold, wet, or windy it might be!

Date:

Astronomy

Sep. 25, 2012 Rise Set
Actual Time 7:29 AM CDT 7:30 PM CDT
Civil Twilight 7:04 AM CDT 7:56 PM CDT
Nautical Twilight 6:34 AM CDT 8:26 PM CDT
Astronomical Twilight 6:03 AM CDT 8:56 PM CDT
Moon 4:50 PM CDT (9/25) 3:00 AM CDT (9/25)
Length of Visible Light 12h 52m
Length of Day
12h 00m
Waxing Gibbous, 80% of the Moon is Illuminated
Sep 25
Waxing Gibbous
Sep 29
Full
Oct 8
Last Quarter
Oct 15
New
Oct 21
First Quarter

Hourly Weather History & Observations

Time (CDT) Temp. Heat Index Dew Point Humidity Pressure Visibility Wind Dir Wind Speed Gust Speed Precip Events Conditions
12:53 AM 75.0 °F - 51.1 °F 43% 29.75 in 10.0 mi South 15.0 mph - N/A   Clear
1:53 AM 78.1 °F - 50.0 °F 37% 29.75 in 10.0 mi South 18.4 mph - N/A   Clear
2:53 AM 77.0 °F - 50.0 °F 39% 29.75 in 10.0 mi SSW 18.4 mph - N/A   Clear
3:53 AM 73.9 °F - 50.0 °F 43% 29.74 in 10.0 mi SSW 17.3 mph 23.0 mph N/A   Clear
4:53 AM 72.0 °F - 50.0 °F 46% 29.73 in 10.0 mi SSW 19.6 mph - N/A   Clear
5:53 AM 71.1 °F - 51.1 °F 49% 29.74 in 10.0 mi SSW 19.6 mph 25.3 mph N/A   Clear
6:53 AM 70.0 °F - 51.1 °F 51% 29.76 in 10.0 mi SSW 16.1 mph - N/A   Clear
7:53 AM 69.1 °F - 53.1 °F 57% 29.78 in 10.0 mi SSW 13.8 mph - N/A   Clear
8:53 AM 73.0 °F - 54.0 °F 51% 29.79 in 10.0 mi SSW 13.8 mph - N/A   Clear
9:53 AM 77.0 °F - 55.0 °F 47% 29.78 in 10.0 mi SSW 23.0 mph 29.9 mph N/A   Clear
10:53 AM 81.0 °F 80.5 °F 54.0 °F 39% 29.78 in 10.0 mi SW 18.4 mph 25.3 mph N/A   Clear
11:53 AM 84.9 °F 83.2 °F 53.1 °F 33% 29.76 in 10.0 mi SSW 18.4 mph 25.3 mph N/A   Clear
12:53 PM 84.9 °F - 51.1 °F 31% 29.75 in 10.0 mi SW 16.1 mph - N/A   Clear
1:53 PM 86.0 °F - 51.8 °F 31% 29.82 in 10.0 mi South 13.8 mph - N/A   Clear
2:53 PM 91.0 °F 88.7 °F 54.0 °F 28% 29.70 in 10.0 mi South 19.6 mph 25.3 mph N/A   Clear
3:53 PM 91.0 °F 88.7 °F 54.0 °F 28% 29.69 in 10.0 mi South 17.3 mph 24.2 mph N/A   Clear
4:53 PM 91.9 °F - 52.0 °F 26% 29.68 in 10.0 mi South 18.4 mph - N/A   Clear
5:31 PM 87.8 °F - 51.8 °F 29% 29.78 in 10.0 mi South 13.8 mph - N/A Thunderstorm Clear
5:53 PM 84.0 °F 83.0 °F 55.9 °F 38% 29.69 in 10.0 mi South 18.4 mph 27.6 mph 0.00 in Rain Light Rain
6:53 PM 86.0 °F - 48.0 °F 27% 29.70 in 10.0 mi South 19.6 mph - 0.00 in   Partly Cloudy
7:53 PM 79.0 °F - 44.1 °F 29% 29.68 in 10.0 mi South 9.2 mph - N/A   Clear
8:53 PM 77.0 °F - 46.0 °F 33% 29.68 in 10.0 mi South 12.7 mph - N/A   Clear
9:53 PM 75.0 °F - 50.0 °F 41% 29.71 in 10.0 mi SSE 12.7 mph - N/A   Clear
10:53 PM 72.0 °F - 54.0 °F 53% 29.74 in 10.0 mi SSE 18.4 mph 29.9 mph N/A   Clear
11:53 PM 69.8 °F - 55.4 °F 60% 29.85 in 10.0 mi Calm Calm - N/A   Clear